Torna al catalogo

FENGYUN 1C DEB

AttivoSSO
NORAD 36244·DEBRIS·🇨🇳 China

Lanciato May 10, 1999 da Taiyuan Satellite Launch Center

Loading…

Prossimi Passaggi (prossime 24 ore)

TLE

AggiornatoSource: Space-Track

Epoca: Sep 13, 2026, 06:36 UTC

1 36244U 99025DVV 26256.27528916  .00002251  00000-0  93680-3 0  9994
2 36244  98.9403  17.1345 0049217 211.5977 148.2245 14.26744986958919

Traccia FENGYUN 1C DEB in tempo reale con AllMySat

Download on the App Store